TimeCDT,TemperatureF,Dew PointF,Humidity,Sea Level PressureIn,VisibilityMPH,Wind Direction,Wind SpeedMPH,Gust SpeedMPH,PrecipitationIn,Events,Conditions,WindDirDegrees,DateUTC
12:13 AM,44.6,42.8,93,29.66,3.0,NW,11.5,-,0.07,Rain,Rain,320,2013-04-19 05:13:00
12:40 AM,44.6,42.8,93,29.68,2.5,NW,17.3,26.5,0.16,Rain,Rain,310,2013-04-19 05:40:00
12:53 AM,45.0,42.1,90,29.68,2.5,WNW,17.3,-,0.21,Rain,Rain,290,2013-04-19 05:53:00
12:57 AM,44.6,42.8,93,29.69,3.0,WNW,16.1,24.2,0.01,Rain,Rain,300,2013-04-19 05:57:00
1:10 AM,44.6,42.8,93,29.69,3.0,WNW,19.6,31.1,0.04,Rain,Rain,290,2013-04-19 06:10:00
1:23 AM,44.6,41.0,87,29.69,2.5,WNW,17.3,24.2,0.08,Rain,Heavy Rain,300,2013-04-19 06:23:00
1:33 AM,44.6,41.0,87,29.70,8.0,WNW,13.8,-,0.08,Rain,Light Rain,300,2013-04-19 06:33:00
1:53 AM,44.1,39.0,82,29.69,10.0,WNW,19.6,-,0.08,,Overcast,290,2013-04-19 06:53:00
2:53 AM,43.0,36.0,76,29.71,10.0,West,13.8,19.6,N/A,,Overcast,280,2013-04-19 07:53:00
3:53 AM,42.1,33.1,70,29.72,10.0,WNW,19.6,24.2,N/A,,Overcast,300,2013-04-19 08:53:00
4:18 AM,42.8,33.8,70,29.73,10.0,WNW,19.6,25.3,N/A,,Overcast,290,2013-04-19 09:18:00
4:53 AM,39.9,37.0,89,29.74,10.0,WSW,15.0,-,0.00,,Overcast,250,2013-04-19 09:53:00
5:53 AM,39.9,32.0,73,29.77,10.0,West,19.6,27.6,0.00,,Overcast,270,2013-04-19 10:53:00
6:08 AM,39.2,30.2,70,29.78,10.0,West,15.0,24.2,N/A,,Overcast,260,2013-04-19 11:08:00
6:53 AM,39.9,30.0,68,29.79,10.0,WNW,12.7,-,N/A,,Overcast,290,2013-04-19 11:53:00
7:53 AM,39.9,28.0,63,29.82,10.0,West,19.6,26.5,N/A,,Overcast,270,2013-04-19 12:53:00
8:53 AM,39.9,30.9,70,29.85,10.0,WSW,17.3,-,N/A,,Overcast,250,2013-04-19 13:53:00
9:53 AM,41.0,32.0,70,29.86,10.0,WSW,13.8,-,N/A,,Overcast,250,2013-04-19 14:53:00
10:53 AM,42.1,32.0,67,29.86,10.0,WSW,17.3,21.9,0.00,,Overcast,250,2013-04-19 15:53:00
11:53 AM,42.1,30.9,65,29.88,10.0,WSW,17.3,27.6,N/A,,Overcast,250,2013-04-19 16:53:00
12:53 PM,44.1,30.9,60,29.90,10.0,WSW,18.4,28.8,N/A,,Overcast,250,2013-04-19 17:53:00
1:53 PM,43.0,30.0,60,29.91,10.0,WSW,21.9,31.1,N/A,,Overcast,250,2013-04-19 18:53:00
2:53 PM,44.1,28.0,53,29.91,10.0,West,20.7,26.5,N/A,,Overcast,270,2013-04-19 19:53:00
3:53 PM,44.1,28.9,55,29.92,10.0,WSW,12.7,26.5,N/A,,Overcast,250,2013-04-19 20:53:00
4:53 PM,45.0,30.9,58,29.94,10.0,West,17.3,24.2,N/A,,Overcast,260,2013-04-19 21:53:00
5:53 PM,45.0,33.1,63,29.96,10.0,WSW,11.5,-,N/A,,Overcast,250,2013-04-19 22:53:00
6:53 PM,45.0,33.1,63,29.97,10.0,West,10.4,-,N/A,,Overcast,280,2013-04-19 23:53:00
7:53 PM,42.1,34.0,73,30.00,10.0,West,5.8,-,N/A,,Scattered Clouds,260,2013-04-20 00:53:00
8:53 PM,42.1,35.1,76,30.03,10.0,NW,8.1,-,N/A,,Overcast,320,2013-04-20 01:53:00
9:53 PM,41.0,33.1,73,30.05,10.0,West,4.6,-,N/A,,Mostly Cloudy,270,2013-04-20 02:53:00
10:53 PM,37.0,33.1,86,30.06,10.0,SSW,4.6,-,N/A,,Clear,210,2013-04-20 03:53:00
11:53 PM,39.0,33.1,79,30.06,10.0,WSW,5.8,-,N/A,,Clear,250,2013-04-20 04:53:00